Change the Weather History Date:

Sunday, December 1, 2013

  Actual Average Record
Temperature  
Mean Temperature 24 °F -  
Max Temperature 32 °F 30 °F 62 °F (1998)
Min Temperature 15 °F 15 °F -11 °F (2014)
Degree Days  
Heating Degree Days 42    
Moisture  
Dew Point 21 °F    
Average Humidity 85    
Maximum Humidity 100    
Minimum Humidity 69    
Precipitation  
Precipitation 0.00 in - - ()
Sea Level Pressure  
Sea Level Pressure 30.07 in    
Wind  
Wind Speed 4 mph (SE)    
Max Wind Speed 13 mph    
Max Gust Speed 18 mph    
Visibility 7 miles    
Events Snow    
Averages and records for this station are not official NWS values.
T = Trace of Precipitation, MM = Missing Value Source: NWS Daily Summary

Daily Weather History Graph

Daily Weather History Graph

Search for Another Location

Airport or City:

Trip Planner

Search our weather history database for the weather conditions in past years. The results will help you decide how hot, cold, wet, or windy it might be!

Date:

Astronomy

Dec. 01, 2013 Rise Set
Actual Time 7:42 AM CST 4:41 PM CST
Civil Twilight 7:08 AM CST 5:14 PM CST
Nautical Twilight 6:31 AM CST 5:51 PM CST
Astronomical Twilight 5:56 AM CST 6:27 PM CST
Moon 5:57 AM CST (12/1) 3:55 PM CST (12/1)
Length of Visible Light 10h 05m
Length of Day
8h 59m
Waning Crescent, 2% of the Moon is Illuminated
Dec 1
Waning Crescent
Dec 2
New
Dec 9
First Quarter
Dec 17
Full
Dec 25
Last Quarter

Hourly Weather History & Observations

Time (CST) Temp. Windchill Dew Point Humidity Pressure Visibility Wind Dir Wind Speed Gust Speed Precip Events Conditions
12:13 AM 15.8 °F 10.2 °F 14.0 °F 93% 30.20 in 7.0 mi North 3.5 mph - N/A   Scattered Clouds
12:32 AM 17.6 °F - 15.8 °F 93% 30.19 in 5.0 mi Calm Calm - N/A   Mostly Cloudy
12:53 AM 17.6 °F 12.3 °F 17.6 °F 100% 30.19 in 7.0 mi NE 3.5 mph - N/A   Overcast
1:13 AM 19.4 °F - 17.6 °F 93% 30.18 in 7.0 mi Calm Calm - N/A   Overcast
1:32 AM 19.4 °F 14.3 °F 17.6 °F 93% 30.18 in 7.0 mi NNE 3.5 mph - N/A   Overcast
1:53 AM 19.4 °F 14.3 °F 17.6 °F 93% 30.18 in 7.0 mi NNE 3.5 mph - N/A   Overcast
2:12 AM 19.4 °F 14.3 °F 17.6 °F 93% 30.19 in 7.0 mi North 3.5 mph - N/A   Overcast
2:32 AM 19.4 °F 12.8 °F 17.6 °F 93% 30.19 in 7.0 mi NNE 4.6 mph - N/A   Overcast
2:53 AM 17.6 °F 10.7 °F 15.8 °F 93% 30.20 in 7.0 mi NNE 4.6 mph - N/A   Overcast
3:12 AM 19.4 °F 14.3 °F 17.6 °F 93% 30.20 in 5.0 mi NE 3.5 mph - N/A   Overcast
3:32 AM 19.4 °F 9.5 °F 17.6 °F 93% 30.19 in 4.0 mi NE 8.1 mph - N/A   Overcast
3:53 AM 19.4 °F 12.8 °F 17.6 °F 93% 30.19 in 4.0 mi NNE 4.6 mph - N/A   Overcast
4:12 AM 19.4 °F 10.4 °F 19.4 °F 100% 30.19 in 2.5 mi NE 6.9 mph - N/A   Overcast
4:33 AM 19.4 °F 14.3 °F 19.4 °F 100% 30.19 in 2.5 mi North 3.5 mph - N/A   Overcast
4:52 AM 19.4 °F 12.8 °F 17.6 °F 93% 30.19 in 1.8 mi NNE 4.6 mph - N/A   Overcast
5:12 AM 19.4 °F 14.3 °F 17.6 °F 93% 30.19 in 1.5 mi NNE 3.5 mph - N/A   Overcast
5:33 AM 19.4 °F 14.3 °F 17.6 °F 93% 30.19 in 1.2 mi North 3.5 mph - N/A   Overcast
5:52 AM 19.4 °F - 17.6 °F 93% 30.18 in 1.2 mi Calm Calm - N/A   Overcast
6:12 AM 19.4 °F - 17.6 °F 93% 30.18 in 2.5 mi Calm Calm - N/A   Overcast
6:33 AM 19.4 °F - 19.4 °F 100% 30.18 in 1.8 mi Calm Calm - N/A   Overcast
6:52 AM 19.4 °F - 19.4 °F 100% 30.18 in 1.5 mi Calm Calm - N/A   Overcast
7:12 AM 19.4 °F - 19.4 °F 100% 30.18 in 2.5 mi Calm Calm - N/A   Overcast
7:33 AM 19.4 °F - 19.4 °F 100% 30.17 in 3.0 mi Calm Calm - N/A   Overcast
7:52 AM 19.4 °F - 19.4 °F 100% 30.17 in 4.0 mi Calm Calm - N/A   Overcast
8:12 AM 19.4 °F - 19.4 °F 100% 30.17 in 3.0 mi Calm Calm - N/A   Overcast
8:33 AM 21.2 °F - 19.4 °F 93% 30.17 in 3.0 mi Calm Calm - N/A   Overcast
8:52 AM 21.2 °F - 19.4 °F 93% 30.17 in 3.0 mi Calm Calm - N/A   Overcast
9:12 AM 21.2 °F - 19.4 °F 93% 30.18 in 4.0 mi Calm Calm - N/A   Overcast
9:33 AM 21.2 °F - 21.2 °F 100% 30.17 in 4.0 mi Calm Calm - N/A   Overcast
9:52 AM 21.2 °F - 21.2 °F 100% 30.17 in 5.0 mi Calm Calm - N/A   Overcast
10:13 AM 21.2 °F - 21.2 °F 100% 30.16 in 7.0 mi Calm Calm - N/A   Overcast
10:32 AM 23.0 °F - 21.2 °F 93% 30.15 in 7.0 mi Calm Calm - N/A   Mostly Cloudy
10:52 AM 24.8 °F 20.5 °F 23.0 °F 93% 30.14 in 7.0 mi SSW 3.5 mph - N/A   Overcast
11:12 AM 24.8 °F 20.5 °F 23.0 °F 93% 30.13 in 7.0 mi SSE 3.5 mph - N/A   Overcast
11:32 AM 24.8 °F - 23.0 °F 93% 30.13 in 10.0 mi Calm Calm - N/A   Mostly Cloudy
11:53 AM 26.6 °F - 21.2 °F 80% 30.11 in 10.0 mi Calm Calm - N/A   Scattered Clouds
12:12 PM 28.4 °F 24.6 °F 21.2 °F 74% 30.10 in 10.0 mi South 3.5 mph - N/A   Mostly Cloudy
12:32 PM 28.4 °F - 21.2 °F 74% 30.09 in 10.0 mi Calm Calm - N/A   Overcast
12:53 PM 30.2 °F 26.7 °F 21.2 °F 69% 30.07 in 10.0 mi SSE 3.5 mph - N/A   Overcast
1:12 PM 30.2 °F 26.7 °F 23.0 °F 75% 30.06 in 10.0 mi SSE 3.5 mph - N/A   Mostly Cloudy
1:32 PM 30.2 °F - 23.0 °F 75% 30.05 in 10.0 mi Calm Calm - N/A   Clear
1:53 PM 30.2 °F 26.7 °F 23.0 °F 75% 30.04 in 10.0 mi SSE 3.5 mph - N/A   Clear
2:12 PM 30.2 °F 25.4 °F 23.0 °F 75% 30.03 in 10.0 mi South 4.6 mph - N/A   Clear
2:32 PM 32.0 °F 27.5 °F 23.0 °F 69% 30.03 in 10.0 mi SSE 4.6 mph - N/A   Scattered Clouds
2:53 PM 32.0 °F 26.4 °F 23.0 °F 69% 30.02 in 10.0 mi South 5.8 mph - N/A   Mostly Cloudy
3:12 PM 30.2 °F 25.4 °F 23.0 °F 75% 30.01 in 10.0 mi SSE 4.6 mph - N/A   Mostly Cloudy
3:32 PM 32.0 °F 26.4 °F 23.0 °F 69% 30.00 in 10.0 mi SSE 5.8 mph - N/A   Scattered Clouds
3:53 PM 32.0 °F 25.6 °F 23.0 °F 69% 30.00 in 10.0 mi SE 6.9 mph - N/A   Scattered Clouds
4:12 PM 30.2 °F 23.4 °F 23.0 °F 75% 29.99 in 10.0 mi SE 6.9 mph - N/A   Clear
4:32 PM 30.2 °F 23.4 °F 23.0 °F 75% 29.99 in 10.0 mi SE 6.9 mph - N/A   Clear
4:53 PM 28.4 °F 21.2 °F 21.2 °F 74% 29.99 in 10.0 mi South 6.9 mph - N/A   Clear
5:12 PM 28.4 °F 21.2 °F 21.2 °F 74% 29.98 in 10.0 mi SE 6.9 mph - N/A   Clear
5:32 PM 28.4 °F 22.2 °F 23.0 °F 80% 29.97 in 10.0 mi SSE 5.8 mph - N/A   Clear
5:53 PM 28.4 °F 21.2 °F 23.0 °F 80% 29.97 in 10.0 mi SSE 6.9 mph - N/A   Clear
6:12 PM 28.4 °F 20.4 °F 23.0 °F 80% 29.96 in 10.0 mi SE 8.1 mph - N/A   Clear
6:32 PM 28.4 °F 21.2 °F 23.0 °F 80% 29.95 in 10.0 mi SSE 6.9 mph - N/A   Clear
6:53 PM 28.4 °F 22.2 °F 21.2 °F 74% 29.95 in 10.0 mi SSE 5.8 mph - N/A   Clear
7:12 PM 28.4 °F 20.4 °F 21.2 °F 74% 29.94 in 10.0 mi SE 8.1 mph - N/A   Clear
7:32 PM 28.4 °F 20.4 °F 21.2 °F 74% 29.93 in 10.0 mi SE 8.1 mph - N/A   Scattered Clouds
7:53 PM 28.4 °F 19.7 °F 21.2 °F 74% 29.92 in 10.0 mi SSE 9.2 mph - N/A   Overcast
8:12 PM 28.4 °F 19.7 °F 23.0 °F 80% 29.91 in 10.0 mi SSE 9.2 mph - N/A   Overcast
8:32 PM 28.4 °F 20.4 °F 23.0 °F 80% 29.91 in 10.0 mi SSE 8.1 mph - N/A   Overcast
8:53 PM 28.4 °F 20.4 °F 23.0 °F 80% 29.90 in 10.0 mi SSE 8.1 mph - N/A   Overcast
9:12 PM 28.4 °F 18.5 °F 21.2 °F 74% 29.90 in 10.0 mi South 11.5 mph 18.4 mph N/A   Overcast
9:33 PM 28.4 °F 19.1 °F 21.2 °F 74% 29.89 in 10.0 mi South 10.4 mph - N/A   Overcast
9:52 PM 28.4 °F 18.5 °F 21.2 °F 74% 29.89 in 10.0 mi South 11.5 mph - N/A   Overcast
10:12 PM 28.4 °F 18.5 °F 23.0 °F 80% 29.87 in 10.0 mi South 11.5 mph - N/A   Overcast
10:33 PM 30.2 °F 21.3 °F 23.0 °F 75% 29.86 in 10.0 mi South 10.4 mph - N/A   Overcast
10:52 PM 28.4 °F 19.7 °F 23.0 °F 80% 29.86 in 10.0 mi South 9.2 mph - N/A   Overcast
11:12 PM 30.2 °F 20.2 °F 23.0 °F 75% 29.85 in 10.0 mi SSE 12.7 mph - N/A Snow Light Snow
11:33 PM 30.2 °F 21.3 °F 23.0 °F 75% 29.84 in 10.0 mi South 10.4 mph - N/A   Overcast
11:52 PM 28.4 °F 19.1 °F 23.0 °F 80% 29.83 in 10.0 mi South 10.4 mph 16.1 mph N/A   Overcast